User: anonymous
Location: Kitchener
(43.4500°N, 80.5000°W)
Time: 15:37:08
(UTC-04:00)
Language:

Cosmos 1939 Rocket - Orbit

View from above orbital plane
View from above orbital plane
View from above satellite
View from above satellite

Ground track
Ground track

The orbit data is extracted from the following two-line orbital elements,

1 19046U 88032B   14212.11278809  .00000423  00000-0  38898-4 0  9389
2 19046 097.6497 265.8967 0033398 315.4746 044.3794 14.99617387414783
Epoch (UTC): 31 July 2014 02:42:24
Eccentricity: 0.0033398
inclination: 97.6497°
perigee height: 545 km
apogee height: 591 km
right ascension of ascending node: 265.8967°
argument of perigee: 315.4746°
revolutions per day: 14.99617387
mean anomaly at epoch: 44.3794°
orbit number at epoch: 41478

The dashed part of the orbit path shows where the satellite is in the earth's shadow,  

DLR